This is the latest recevied weather packets stored in our database for station/object WC4PEM-10. If no packets are shown the sender has not sent any weather packets the latest 10 day(s).
| Time | Temp. | Humidity | Pressure | Rain* | Wind** | Luminosity | Snow |
|---|---|---|---|---|---|---|---|
| 1778178982 | 33.33° C | 42% | 1014.2 hPa | 0 mm | - | - | - |
| 1778178846 | 33.33° C | 50% | 1014.3 hPa | 0 mm | - | - | - |
| 1778178682 | 33.33° C | 50% | 1014.3 hPa | 0 mm | - | - | - |
| 1778178597 | 32.78° C | 48% | 1014.4 hPa | 0 mm | - | - | - |
| 1778178382 | 32.78° C | 48% | 1014.4 hPa | 0 mm | - | - | - |
| 1778178295 | 32.78° C | 48% | 1014.5 hPa | 0 mm | - | - | - |
| 1778178082 | 32.78° C | 48% | 1014.5 hPa | 0 mm | - | - | - |
| 1778177782 | 32.22° C | 51% | 1014.6 hPa | 0 mm | - | - | - |
| 1778177659 | 32.78° C | 50% | 1014.8 hPa | 0 mm | - | - | - |
| 1778177482 | 32.78° C | 50% | 1014.8 hPa | 0 mm | - | - | - |
| 1778177408 | 32.78° C | 50% | 1014.8 hPa | 0 mm | - | - | - |
| 1778177182 | 32.78° C | 50% | 1014.8 hPa | 0 mm | - | - | - |
| 1778176945 | 32.22° C | 51% | 1014.8 hPa | 0 mm | - | - | - |
| 1778176882 | 32.22° C | 51% | 1014.8 hPa | 0 mm | - | - | - |
| 1778176582 | 32.78° C | 51% | 1014.9 hPa | 0 mm | - | - | - |
| 1778176503 | 32.22° C | 52% | 1014.9 hPa | 0 mm | - | - | - |
| 1778176282 | 32.22° C | 52% | 1014.9 hPa | 0 mm | - | - | - |
| 1778176086 | 32.22° C | 53% | 1015.1 hPa | 0 mm | - | - | - |
| 1778175982 | 32.22° C | 53% | 1015.1 hPa | 0 mm | - | - | - |
| 1778175841 | 32.22° C | 56% | 1014.9 hPa | 0 mm | - | - | - |
| 1778175682 | 32.22° C | 56% | 1014.9 hPa | 0 mm | - | - | - |
| 1778175382 | 32.78° C | 55% | 1015.2 hPa | 0 mm | - | - | - |
| 1778175178 | 32.22° C | 56% | 1015.2 hPa | 0 mm | - | - | - |
| 1778175082 | 32.22° C | 56% | 1015.2 hPa | 0 mm | - | - | - |
| 1778174983 | 32.22° C | 57% | 1015.3 hPa | 0 mm | - | - | - |
* Rain latest hour (hover to see other rain measurements)
** Current wind speed in m/s (hover to see current wind gust speed)